Showing default

LANDSAT 1 (ERTS 1), 6126

Orbit data source: Space-Track

LANDSAT 1 (ERTS 1), 6126 is a payload satellite owned by GSFC (US) in SSO that was launched on Sun, 23 Jul 1972 UTC via a DELTA 0900 launch vehicle from the Air Force Western Test Range (AFWTR). Payload-class satellites include a variety of spacecraft equipped with specific instruments for various scientific and technological missions. These include communications satellites like Starlink; space stations such as the ISS; scientific satellites like the Hubble; Earth observation satellites from companies like Planet Labs, Umbra, and HawkEye 360; GPS; miniature CubeSats for education and research; and military/defense satellites.

Loading next visibility...
Identifier
6126, 1972-058A
Orbit
SSO
Last TLE update
11 hours ago
Origin
Manufacturer
GE/MSVD
Mission
Non-operational Civil Imaging
Bus & Motor
NIMBUS, Unknown motor
Mass
891 kg wet, 891 kg dry
Launch date (UTC)
1972-07-23 (53 years ago)
Launch vehicle
DELTA 0900
Launch site
Air Force Western Test Range (AFWTR)
Object type
Payload
Rocket body
Debris
Shape & HBR
Cone + 2 Pan, 3.3 m
Radar Cross Section
2.170 m², Large (>1 m²)

Expand to show TLE details & history

TLE from 11 hours ago
0 LANDSAT 1 (ERTS 1)
1 06126U 72058A   25189.88372162 -.00000163  00000-0 -82506-4 0  9996
2 06126  99.3651 208.2846 0008892 109.4594 250.7529 13.97794228699993
Epoch: 2025-07-08T21:12Z
TLE epoch observation values (Epoch: 2025-07-08T21:12:33.547Z)
Latitude
-0.0001°
Longitude
-36.92747°
Altitude
906.445 km
Speed
7.398 km/s
True Right ascension
13h 53m 08s
True Declination
0° 00' 00"
Sunlit
Object was in daylight at epoch
Visualization orbit readout
Latitude
45.0788°
Longitude
153.0062°
Altitude
902.382 km
Speed
7.408 km/s
Apparent Right ascension
05h 20m 33s
Apparent Declination
8° 15' 14"
Sunlit
Object is in daylight
Visualization observer readout
Local Sidereal Time
20:18:59
Azimuth
51.027° ENE
Elevation
-26.634°
Doppler factor
1
Orbital elements
Apogee altitude
905.134 km
Perigee altitude
892.193 km
Semi-major axis
7,276.801 km
Eccentricity
0.00089
Inclination
99.3651°
RAAN
208.2846°
Arg. of periapsis
109.4594°
True anomaly
Unknown
Mean anomaly
250.7529°
Eccentric anomaly
Unknown
Mean motion
3.49649 °/min
Orbital period
102.96 mins
BSTAR
-0.000082506
Loading maneuver chart data...
Loading SW <> Apogee altitude chart data...

LANDSAT 1 (ERTS 1) Visibility forecast

Observer location: undefined°, undefined°

Span
Click to sort rows by Start time (UTC) header in descending order
Start Az.
Max El. time (UTC)
Max El. Az.
Max El.
End time (UTC)
End Az.
9 mins2025-07-09 13:16:22.280Z40.327° NE2025-07-09 13:20:22.280Z90.802° ESE26.202°2025-07-09 13:25:22.280Z155.078° SSE
9 mins2025-07-09 14:58:22.280Z352.046° N2025-07-09 15:02:22.280Z292.169° WNW31.493°2025-07-09 15:07:22.280Z227.606° WSW
9 mins2025-07-10 00:49:22.280Z147.347° SSE2025-07-10 00:53:22.280Z86.935° E41.096°2025-07-10 00:58:22.280Z354.666° N
6 mins2025-07-10 02:33:22.280Z238.953° WSW2025-07-10 02:35:22.280Z262.972° W16.974°2025-07-10 02:39:22.280Z308.242° NW
|